FW8514 Weather Reports


Display with metric or nautical units.
time (UTC)temp
F
wind
direction
speed
MPH
gust
MPH
rain 1hr
in
rain 24hr
in
rain mn
in
humidity
%
barometer
mb
20260505124337 66 220 2.0 2.0 0.00 0.00 0.00 65 993.5
20260505123833 66 238 3.0 3.0 0.00 0.00 0.00 66 993.6
20260505123330 66 251 5.0 5.0 0.00 0.00 0.00 66 993.4
20260505122826 65 249 2.0 3.0 0.00 0.00 0.00 67 993.3
20260505122324 65 255 3.0 3.0 0.00 0.00 0.00 68 993.3
20260505121820 64 278 5.0 8.0 0.00 0.00 0.00 68 993.2
20260505121317 64 266 5.0 7.0 0.00 0.00 0.00 68 993.2
20260505120813 64 259 5.0 6.0 0.00 0.00 0.00 69 992.9
20260505120309 63 234 3.0 3.0 0.00 0.00 0.00 70 993.0
20260505115808 63 231 5.0 6.0 0.00 0.00 0.00 69 993.1
20260505115306 63 275 5.0 7.0 0.00 0.00 0.00 69 992.9
20260505114803 63 224 5.0 6.0 0.00 0.00 0.00 71 992.9
20260505114300 62 269 5.0 6.0 0.00 0.00 0.00 70 992.9
20260505113756 62 256 4.0 5.0 0.00 0.00 0.00 71 992.9
20260505113252 62 228 3.0 3.0 0.00 0.00 0.00 72 992.7
20260505112748 61 235 5.0 6.0 0.00 0.00 0.00 72 992.9
20260505112246 61 242 5.0 7.0 0.00 0.00 0.00 74 992.9
20260505111741 60 235 3.0 3.0 0.00 0.00 0.00 75 992.9
20260505111237 60 221 3.0 5.0 0.00 0.00 0.00 75 992.6
20260505110733 60 202 4.0 5.0 0.00 0.00 0.00 75 992.6
20260505110231 59 274 4.0 5.0 0.00 0.00 0.00 77 992.4
20260505102206 58 225 2.0 2.0 0.00 0.00 0.00 80 992.3
20260505101705 58 204 2.0 2.0 0.00 0.00 0.00 80 992.3
20260505101201 57 221 1.0 1.0 0.00 0.00 0.00 80 992.2
20260505100657 57 219 0.0 1.0 0.00 0.00 0.00 81 992.2
20260505100154 57 219 1.0 1.0 0.00 0.00 0.00 80 992.1
20260505095649 57 217 0.0 0.0 0.00 0.00 0.00 81 992.4
20260505095147 57 217 0.0 0.0 0.00 0.00 0.00 80 992.0
20260505094643 58 221 0.0 0.0 0.00 0.00 0.00 80 992.1
20260505094139 58 222 0.0 0.0 0.00 0.00 0.00 79 992.3
20260505093636 58 222 0.0 1.0 0.00 0.00 0.00 79 992.1
20260505093133 58 212 1.0 1.0 0.00 0.00 0.00 80 992.0
20260505092630 58 222 0.0 0.0 0.00 0.00 0.00 79 992.0
20260505092129 58 181 0.0 0.0 0.00 0.00 0.00 79 992.0
20260505091625 57 189 0.0 1.0 0.00 0.00 0.00 80 992.0
20260505091124 57 183 0.0 1.0 0.00 0.00 0.00 80 992.0
20260505090621 57 180 0.0 0.0 0.00 0.00 0.00 80 992.1
20260505090119 57 165 0.0 0.0 0.00 0.00 0.00 80 992.0
20260505085616 58 165 0.0 1.0 0.00 0.00 0.00 79 992.2
20260505085115 58 162 1.0 1.0 0.00 0.00 0.00 79 991.8
20260505084612 58 162 0.0 0.0 0.00 0.00 0.00 78 992.0
20260505084110 58 163 1.0 1.0 0.00 0.00 0.00 79 991.8
20260505083607 58 154 0.0 0.0 0.00 0.00 0.00 78 991.8
20260505083103 59 153 1.0 2.0 0.00 0.00 0.00 77 991.9
20260505082559 59 186 0.0 0.0 0.00 0.00 0.00 77 992.0
20260505082057 59 201 0.0 0.0 0.00 0.00 0.00 76 991.9
20260505081553 59 208 0.0 0.0 0.00 0.00 0.00 76 991.8
20260505081050 59 208 0.0 0.0 0.00 0.00 0.00 75 991.9
20260505080546 59 208 0.0 0.0 0.00 0.00 0.00 75 991.9
20260505080043 60 208 0.0 0.0 0.00 0.00 0.00 75 992.0
20260505075539 60 208 0.0 0.0 0.00 0.00 0.00 74 992.0
20260505075036 60 208 0.0 0.0 0.00 0.00 0.00 73 991.8
20260505074533 60 208 0.0 0.0 0.00 0.00 0.00 73 991.9
20260505074030 61 210 0.0 0.0 0.00 0.00 0.00 72 992.1
20260505073527 61 224 1.0 1.0 0.00 0.00 0.00 71 992.1
20260505073026 61 223 2.0 2.0 0.00 0.00 0.00 72 992.1
20260505072521 61 242 1.0 2.0 0.00 0.00 0.00 71 992.1
20260505072017 61 238 0.0 1.0 0.00 0.00 0.00 71 992.1
20260505071513 61 243 1.0 2.0 0.00 0.00 0.00 71 991.9
20260505071012 61 256 1.0 2.0 0.00 0.00 0.00 70 992.1
20260505070509 61 245 1.0 2.0 0.00 0.00 0.00 70 992.4
20260505070004 61 232 2.0 2.0 0.00 0.00 0.00 70 992.1
20260505065500 61 230 2.0 3.0 0.00 0.00 0.00 70 992.0
20260505064957 61 256 3.0 3.0 0.00 0.00 0.00 69 992.0
20260505064454 61 210 1.0 2.0 0.00 0.00 0.00 71 992.3
20260505063952 61 254 1.0 1.0 0.00 0.00 0.00 71 992.0
20260505063449 61 255 1.0 1.0 0.00 0.00 0.00 69 992.0
20260505062945 60 261 2.0 2.0 0.00 0.00 0.00 70 992.1
20260505062442 61 253 1.0 1.0 0.00 0.00 0.00 70 992.0
20260505061939 61 264 0.0 0.0 0.00 0.00 0.00 69 992.1
20260505061437 61 283 2.0 3.0 0.00 0.00 0.00 69 992.0
20260505060934 61 246 0.0 1.0 0.00 0.00 0.00 69 992.0
20260505060431 61 269 1.0 2.0 0.00 0.00 0.00 69 991.8
20260505055927 61 198 1.0 1.0 0.00 0.00 0.00 69 991.8
20260505055424 61 78 2.0 3.0 0.00 0.00 0.00 68 991.8
20260505054921 61 246 0.0 1.0 0.00 0.00 0.00 68 991.8
20260505054418 61 252 1.0 2.0 0.00 0.00 0.00 67 991.9
20260505053916 61 239 2.0 2.0 0.00 0.00 0.00 67 991.8
20260505053413 61 243 1.0 1.0 0.00 0.00 0.00 67 991.7
20260505052909 61 235 2.0 3.0 0.00 0.00 0.00 66 992.0
20260505052406 61 242 3.0 5.0 0.00 0.00 0.00 67 991.7
20260505051904 61 220 1.0 1.0 0.00 0.00 0.00 67 991.7
20260505051401 61 253 2.0 3.0 0.00 0.00 0.00 65 991.9
20260505050859 62 223 1.0 1.0 0.00 0.00 0.00 65 992.1
20260505050357 62 231 2.0 2.0 0.00 0.00 0.00 64 991.8
20260505041324 62 232 0.0 1.0 0.00 0.00 0.00 61 991.9
20260505040821 62 199 1.0 1.0 0.00 0.00 0.00 60 991.8
20260505040319 62 183 2.0 3.0 0.00 0.00 0.00 60 991.6
20260505035815 62 236 3.0 5.0 0.00 0.00 0.00 59 991.8
20260505035311 63 182 1.0 2.0 0.00 0.00 0.00 59 991.7
20260505034809 63 212 3.0 5.0 0.00 0.00 0.00 59 991.6
20260505034305 63 119 1.0 1.0 0.00 0.00 0.00 58 991.4
20260505033802 62 221 2.0 3.0 0.00 0.00 0.00 57 991.6
20260505033259 62 218 3.0 6.0 0.00 0.00 0.00 58 991.7
20260505032758 62 240 2.0 3.0 0.00 0.00 0.00 57 991.6
20260505032253 62 196 1.0 2.0 0.00 0.00 0.00 58 991.7
20260505031750 62 223 1.0 1.0 0.00 0.00 0.00 58 991.8
20260505031246 62 191 2.0 2.0 0.00 0.00 0.00 58 991.8
20260505030744 62 133 0.0 0.0 0.00 0.00 0.00 57 991.7
20260505030240 63 237 0.0 0.0 0.00 0.00 0.00 56 991.8
20260505025736 63 234 1.0 2.0 0.00 0.00 0.00 56 991.8
20260505025234 63 197 1.0 1.0 0.00 0.00 0.00 56 991.7
20260505024732 63 214 2.0 3.0 0.00 0.00 0.00 56 991.7
20260505024229 63 252 1.0 1.0 0.00 0.00 0.00 55 991.7
20260505023726 63 211 1.0 1.0 0.00 0.00 0.00 56 991.7
20260505023223 63 230 2.0 3.0 0.00 0.00 0.00 54 991.8
20260505022721 64 241 1.0 2.0 0.00 0.00 0.00 54 992.0
20260505022218 64 248 2.0 2.0 0.00 0.00 0.00 53 992.1
20260505021714 64 206 0.0 1.0 0.00 0.00 0.00 55 992.2
20260505021212 64 240 1.0 2.0 0.00 0.00 0.00 54 992.0
20260505020707 64 220 4.0 6.0 0.00 0.00 0.00 53 992.2
20260505020203 64 252 5.0 9.0 0.00 0.00 0.00 54 992.0
20260505015700 64 245 2.0 2.0 0.00 0.00 0.00 53 991.9
20260505015157 64 227 1.0 1.0 0.00 0.00 0.00 54 992.1
20260505014654 64 207 1.0 1.0 0.00 0.00 0.00 54 991.9
20260505014151 64 175 1.0 2.0 0.00 0.00 0.00 54 992.1
20260505013648 64 234 0.0 0.0 0.00 0.00 0.00 53 992.0
20260505013145 64 239 1.0 1.0 0.00 0.00 0.00 54 992.1
20260505012643 64 244 2.0 2.0 0.00 0.00 0.00 53 992.1
20260505012140 64 221 1.0 1.0 0.00 0.00 0.00 53 991.7
20260505011636 65 226 1.0 2.0 0.00 0.00 0.00 53 992.0
20260505011134 65 227 2.0 2.0 0.00 0.00 0.00 52 991.7
20260505010633 64 218 2.0 2.0 0.00 0.00 0.00 53 991.8
20260505010131 65 211 0.0 1.0 0.00 0.00 0.00 53 991.6
20260505005627 65 222 2.0 2.0 0.00 0.00 0.00 52 991.5
20260505005124 65 231 0.0 1.0 0.00 0.00 0.00 53 991.6
20260505004621 65 193 0.0 0.0 0.00 0.00 0.00 53 991.4
20260505004118 65 231 0.0 0.0 0.00 0.00 0.00 53 991.5
20260505003615 65 191 0.0 0.0 0.00 0.00 0.00 52 991.7
20260505003112 66 204 1.0 1.0 0.00 0.00 0.00 52 991.3
20260505002608 66 204 0.0 0.0 0.00 0.00 0.00 51 991.5
20260505002107 67 245 1.0 1.0 0.00 0.00 0.00 50 991.4
20260505001603 67 234 2.0 2.0 0.00 0.00 0.00 49 991.3
20260505001101 66 231 1.0 2.0 0.00 0.00 0.00 50 991.3
20260505000558 67 215 1.0 1.0 0.00 0.00 0.00 50 991.2
20260505000056 68 205 1.0 2.0 0.00 0.00 0.00 48 991.5
20260504235552 67 238 1.0 3.0 0.00 0.00 0.00 49 991.1
20260504235049 67 269 1.0 2.0 0.00 0.00 0.00 49 991.3
20260504234546 68 220 2.0 3.0 0.00 0.00 0.00 48 991.1
20260504234043 68 182 1.0 1.0 0.00 0.00 0.00 49 991.1
20260504233538 68 232 1.0 1.0 0.00 0.00 0.00 48 991.4
20260504233035 68 237 1.0 1.0 0.00 0.00 0.00 47 991.2
20260504232532 69 245 3.0 3.0 0.00 0.00 0.00 47 991.3
20260504232030 69 212 1.0 1.0 0.00 0.00 0.00 47 991.2
20260504231526 69 218 2.0 2.0 0.00 0.00 0.00 47 991.3
20260504231022 69 245 3.0 3.0 0.00 0.00 0.00 46 991.2
20260504230519 70 222 1.0 2.0 0.00 0.00 0.00 46 991.1
20260504230018 69 242 2.0 2.0 0.00 0.00 0.00 45 991.1
20260504225514 70 238 1.0 1.0 0.00 0.00 0.00 46 991.4
20260504225012 70 191 1.0 2.0 0.00 0.00 0.00 46 991.3
20260504224508 70 244 2.0 2.0 0.00 0.00 0.00 44 991.3
20260504224005 70 206 1.0 2.0 0.00 0.00 0.00 45 991.2
20260504223502 70 46 2.0 2.0 0.00 0.00 0.00 44 991.2
20260504222957 70 258 6.0 7.0 0.00 0.00 0.00 43 991.1
20260504222455 71 266 3.0 6.0 0.00 0.00 0.00 44 991.1
20260504221952 70 247 3.0 5.0 0.00 0.00 0.00 45 991.6
20260504221449 71 207 4.0 6.0 0.00 0.00 0.00 43 991.1
20260504220946 71 279 5.0 6.0 0.00 0.00 0.00 43 991.2
20260504220443 71 194 3.0 3.0 0.00 0.00 0.00 43 991.1
20260504215940 71 235 3.0 5.0 0.00 0.00 0.00 44 991.2
20260504215436 72 237 4.0 5.0 0.00 0.00 0.00 43 991.2
20260504214933 72 269 4.0 5.0 0.00 0.00 0.00 44 991.4
20260504214429 72 60 2.0 3.0 0.00 0.00 0.00 43 991.5
20260504213926 72 203 4.0 6.0 0.00 0.00 0.00 42 991.2
20260504213422 71 240 6.0 7.0 0.00 0.00 0.00 43 991.3
20260504212920 71 268 5.0 6.0 0.00 0.00 0.00 43 991.4
20260504212415 71 225 4.0 5.0 0.00 0.00 0.00 44 991.5
20260504211914 72 214 2.0 3.0 0.00 0.00 0.00 45 991.4
20260504211409 72 248 4.0 6.0 0.00 0.00 0.00 43 991.4
20260504210907 72 200 4.0 5.0 0.00 0.00 0.00 45 991.5
20260504210404 72 289 3.0 5.0 0.00 0.00 0.00 43 991.4
20260504205901 71 258 2.0 5.0 0.00 0.00 0.00 43 991.8
20260504205358 72 251 4.0 5.0 0.00 0.00 0.00 43 991.6
20260504204857 72 173 4.0 6.0 0.00 0.00 0.00 44 991.3
20260504204354 72 248 3.0 5.0 0.00 0.00 0.00 43 991.5
20260504203854 73 242 3.0 3.0 0.00 0.00 0.00 42 991.4
20260504203350 73 270 4.0 5.0 0.00 0.00 0.00 45 991.4
20260504202846 72 242 2.0 2.0 0.00 0.00 0.00 45 991.5
20260504202343 73 207 3.0 3.0 0.00 0.00 0.00 42 991.6
20260504201839 73 191 4.0 5.0 0.00 0.00 0.00 44 991.5
20260504201337 73 177 5.0 7.0 0.00 0.00 0.00 42 991.7
20260504200835 74 179 2.0 2.0 0.00 0.00 0.00 43 991.7
20260504200331 72 246 3.0 3.0 0.00 0.00 0.00 44 991.7
20260504195827 72 220 8.0 10.0 0.00 0.00 0.00 42 991.9
20260504195323 72 237 3.0 6.0 0.00 0.00 0.00 43 991.9
20260504194820 73 260 5.0 7.0 0.00 0.00 0.00 40 991.9
20260504194316 74 259 4.0 5.0 0.00 0.00 0.00 43 991.8
20260504193812 73 223 4.0 6.0 0.00 0.00 0.00 42 992.0
20260504193310 72 178 2.0 3.0 0.00 0.00 0.00 43 991.9
20260504192808 73 223 3.0 5.0 0.00 0.00 0.00 44 992.0
20260504192306 73 123 1.0 2.0 0.00 0.00 0.00 43 992.0
20260504191804 72 115 2.0 3.0 0.00 0.00 0.00 42 992.1
20260504191301 72 246 5.0 7.0 0.00 0.00 0.00 42 992.0
20260504190757 73 257 6.0 8.0 0.00 0.00 0.00 42 992.3
20260504190253 73 259 3.0 5.0 0.00 0.00 0.00 43 992.4
20260504185750 73 266 3.0 5.0 0.00 0.00 0.00 42 992.3
20260504185247 71 263 2.0 3.0 0.00 0.00 0.00 44 992.3
20260504184743 71 231 6.0 8.0 0.00 0.00 0.00 42 992.4
20260504184239 72 265 2.0 2.0 0.00 0.00 0.00 43 992.5
20260504183735 72 123 3.0 3.0 0.00 0.00 0.00 43 992.5
20260504183232 72 261 4.0 5.0 0.00 0.00 0.00 41 992.8
20260504182730 72 217 5.0 6.0 0.00 0.00 0.00 41 992.8
20260504182227 71 264 7.0 9.0 0.00 0.00 0.00 42 992.8
20260504181724 71 242 4.0 5.0 0.00 0.00 0.00 46 993.1
20260504181222 71 238 5.0 8.0 0.00 0.00 0.00 42 993.0
20260504180721 70 245 4.0 6.0 0.00 0.00 0.00 41 993.2
20260504180219 71 257 5.0 7.0 0.00 0.00 0.00 42 993.1
20260504175716 72 228 5.0 7.0 0.00 0.00 0.00 42 993.1
20260504175213 71 244 4.0 5.0 0.00 0.00 0.00 43 993.3
20260504174711 71 239 2.0 3.0 0.00 0.00 0.00 44 993.2
20260504174208 70 275 4.0 6.0 0.00 0.00 0.00 44 993.4
20260504173704 70 201 1.0 3.0 0.00 0.00 0.00 43 993.5
20260504173202 71 251 5.0 6.0 0.00 0.00 0.00 42 993.6
20260504172658 73 193 3.0 5.0 0.00 0.00 0.00 40 993.6
20260504172155 71 216 3.0 5.0 0.00 0.00 0.00 42 993.7
20260504171651 69 273 3.0 5.0 0.00 0.00 0.00 44 993.9
20260504171148 70 191 5.0 7.0 0.00 0.00 0.00 42 993.8
20260504170645 69 242 3.0 3.0 0.00 0.00 0.00 43 994.0
20260504170142 70 266 5.0 6.0 0.00 0.00 0.00 43 994.0
20260504151033 67 191 2.0 2.0 0.00 0.00 0.00 44 995.4
20260504150531 67 233 3.0 3.0 0.00 0.00 0.00 49 995.4
20260504140956 63 265 4.0 6.0 0.00 0.00 0.00 54 995.7
20260504140453 63 194 3.0 5.0 0.00 0.00 0.00 53 995.7
20260504130418 58 246 2.0 3.0 0.00 0.00 0.00 66 996.3